Location: Fernhill
(41.0167°S, 175.6333°E)
Time: 22:41:40
(UTC+00:00)

Cosmos 332 Rocket - Pass Details

Date: 08 November 2025
Orbit: 673 x 693 km, 74.0° (Epoch: 04 December)

Event Time Altitude Azimuth Distance (km) Brightness Sun altitude
Rises 07:41:51 0° 201° (SSW) 3,080 8.0 -6.8°
Reaches altitude 10° 07:44:11 10° 201° (SSW) 2,160 7.2 -7.2°
Maximum altitude 07:49:03 83° 287° (WNW) 706 3.9 -8.0°
Drops below altitude 10° 07:53:54 10° 15° (NNE) 2,143 5.9 -8.8°
Enters shadow 07:55:35 - 15° (NNE) 2,813 6.5 -9.1°
